SCP
0 0 0 0 0 0 0 0 0 0 0 0 -0 0 0 0 0 0 0 0 0 0 0 -0 -0 -0 -0 -0 -0 0 -0 0 -0 -0 -0 -0 -0 0 0 0 -0 -0 -0
0 0 0 0 0 0 0 0 0 0 0 0 0 0 0 -0 -0 -0 0 0 0 -0 -0 -0 -0 -0 -0 -0 -0 -0 -0 -0 -0 -0 -0 -0 -0 -0 0 0 -0 -0 -0
-0 0 0 0 0 0 0 0 0 0 0 0 0 0 0 0 0 -0 0 0 -0 -0 -0 -0 -0 0 -0 -0 -0 -0 0 -0 -0 -0 0 0 -0 -0 -0 -0 -0 -0 -0
-0 0 0 0 0 0 0 -0 0 0 0 0 0 0 0 0 0 -0 -0 0 -0 -0 -0 -0 -0 -0 -0 -0 -0 -0 -0 -0 -0 -0 0 0 -0 -0 -0 -0 -0 -0 -0
-0 0 0 0 0 0 0 0 0 0 0 0 0 0 0 0 -0 -0 -0 -0 -0 -0 -0 0 0 -0 -0 -0 -0 -0 -0 -0 -0 -0 0 0 0 -0 -0 -0 -0 -0 0
0 0 0 0 0 0 0 0 0 0 0 0 0 0 0 0 -0 -0 -0 -0 -0 -0 -0 -0 0 -0 -0 -0 -0 -0 -0 -0 -0 -0 -0 -0 0 -0 -0 0 -0 -0 -0
0 0 0 0 0 0 0 0 0 0 0 0 0 0 0 -0 0 -0 0 0 0 0 0 0 -0 -0 -0 -0 0 0 0 -0 -0 0 0 -0 -0 -0 -0 -0 -0 -0 -0
0 -0 0 0 0 0 0 0 0 0 0 -0 -0 -0 0 0 0 0 0 0 0 0 0 0 0 -0 -0 -0 0 0 0 -0 -0 0 -0 -0 -0 -0 -0 -0 -0 -0 -0
-0 -0 0 0 0 0 0 0 0 -0 -0 -0 -0 0 -0 -0 -0 -0 -0 -0 -0 -0 0 -0 -0 -0 -0 -0 -0 0 0 -0 -0 0 -0 -0 -0 -0 -0 -0 -0 -0 -0
0 -0 -0 -0 0 -0 -0 0 -0 -0 -0 0 -0 -0 -0 -0 -0 -0 -0 -0 -0 0 -0 -0 -0 -0 -0 -0 -0 -0 -0 -0 -0 -0 0 -0 -0 0 0 0 -0 0 -0
0 0 0 -0 -0 -0 -0 -0 -0 -0 -0 -0 -0 -0 -0 -0 -0 -0 -0 -0 -0 -0 0 -0 -0 -0 -0 -0 -0 -0 -0 0 -0 0 -0 -0 -0 0 0 0 0 0 0
-0 -0 -0 -0 -0 -0 0 -0 -0 -0 -0 -0 -0 -0 -0 -0 -0 -0 -0 -0 -0 -0 -0 -0 -0 -0 -0 0 0 -0 -0 -0 0 0 -0 -0 -0 0 0 0 -0 -0 0
-0 -0 -0 0 0 0 0 0 0 0 0 -0 -0 -0 -0 -0 -0 0 0 0 -0 -0 -0 -0 -0 -0 -0 0 0 0 -0 0 0 0 -0 -0 -0 -0 -0 -0 -0 -0 0
-0 -0 -0 0 0 0 0 -0 0 0 -0 -0 -0 -0 0 0 -0 0 0 0 0 0 0 -0 0 -0 -0 0 -0 0 -0 -0 0 0 -0 -0 -0 -0 -0 -0 -0 0 -0
-0 0 0 -0 -0 0 -0 0 0 0 0 0 0 0 0 0 -0 0 0 0 0 0 -0 0 -0 0 0 0 -0 0 -0 0 -0 -0 0 -0 -0 -0 -0 -0 -0 -0 0
-0 -0 -0 -0 -0 -0 0 0 0 0 0 0 0 0 0 0 0 0 -0 -0 0 0 0 0 0 0 -0 0 -0 -0 -0 -0 -0 -0 -0 0 0 0 -0 -0 -0 -0 -0
-0 -0 -0 -0 -0 -0 -0 -0 -0 -0 -0 0 0 0 0 0 0 0 0 0 -0 -0 -0 0 0 0 -0 -0 -0 -0 -0 -0 -0 -0 -0 -0 0 0 0 -0 -0 0 0
-0 -0 0 -0 -0 -0 -0 -0 -0 0 0 0 0 0 0 0 -0 0 0 -0 -0 -0 -0 0 -0 -0 -0 -0 -0 -0 0 0 -0 -0 -0 -0 -0 0 0 0 0 -0 0
0 -0 -0 -0 -0 -0 -0 -0 0 0 0 -0 0 0 0 -0 -0 0 0 0 0 0 -0 0 -0 0 0 -0 -0 -0 0 0 0 0 0 0 0 0 0 0 0 0 0
-0 -0 0 -0 0 -0 0 0 0 0 -0 -0 0 0 0 0 -0 -0 0 0 0 0 -0 -0 -0 0 0 -0 -0 -0 0 0 0 -0 0 0 0 0 0 0 0 0 0
-0 -0 -0 -0 -0 0 0 0 -0 -0 0 0 0 0 0 0 0 -0 -0 0 -0 -0 -0 -0 -0 -0 0 -0 0 0 0 0 0 0 0 0 0 0 0 0 0 0 0
-0 -0 -0 -0 -0 -0 -0 -0 -0 0 0 0 0 0 0 -0 -0 -0 -0 -0 -0 0 -0 0 0 0 0 0 0 0 0 0 0 0 0 0 0 0 0 0 0 0 0
-0 -0 -0 -0 -0 -0 -0 0 0 0 0 0 0 -0 -0 0 -0 -0 -0 0 0 0 0 -0 0 0 0 0 0 0 0 0 -0 0 0 0 0 -0 0 0 0 0 0
-0 -0 -0 -0 -1 -0 -0 -0 -0 -0 0 0 0 -0 -0 0 -0 -0 -0 -0 -0 0 0 0 0 0 0 0 0 0 0 0 -0 -0 0 0 0 0 0 -0 0 0 0
-0 -0 -0 -1 -1 -1 -1 -0 -0 -0 -0 -0 0 -0 -0 -0 0 -0 -0 -0 0 -0 0 0 0 0 0 0 0 0 0 0 0 0 -0 0 0 0 0 0 0 0 0
-0 -0 -0 -1 -1 -1 -1 -1 -1 -0 -0 -0 -0 -0 -0 0 0 -0 -0 0 0 0 0 0 0 0 0 0 0 0 0 0 0 0 0 0 0 0 0 0 0 0 0
Wind_Speed_500mb
36 30 36 35 36 38 39 40 40 38 38 36 34 34 32 30 28 28 26 23 15 13 17 17 11 10 9 11 13 14 17 21 19 23 28 29 28 29 29 31 29 17 23
32 30 33 35 29 32 38 40 40 37 35 32 28 28 28 29 26 22 21 19 18 15 15 10 9 7 6 13 15 23 26 22 19 21 22 23 25 25 24 28 26 16 20
23 30 32 31 29 33 37 38 34 30 28 26 25 23 23 23 21 19 19 19 13 10 8 8 7 7 9 15 21 20 19 25 20 21 23 23 14 21 20 21 15 15 18
29 25 27 31 31 34 35 34 30 27 23 20 19 20 19 20 20 17 17 16 11 8 6 7 9 9 12 15 22 21 25 23 20 19 9 30 17 18 19 18 17 18 17
29 25 27 30 29 29 28 27 25 22 18 16 17 19 20 21 20 17 16 11 7 8 8 11 12 13 15 17 20 18 18 18 24 11 10 9 23 15 16 16 18 18 23
33 25 30 30 30 28 26 23 20 18 15 15 15 16 17 16 14 12 10 8 8 9 9 13 13 15 16 15 16 13 14 21 17 11 13 13 10 11 11 17 17 13 15
33 27 31 32 29 24 23 21 17 17 14 15 15 15 14 12 11 11 11 9 9 9 10 11 10 13 14 15 13 12 11 17 17 8 12 29 21 8 13 15 14 13 13
39 25 26 30 27 24 18 16 15 15 15 13 15 13 14 13 11 10 10 11 9 8 7 8 10 10 12 13 10 9 8 13 4 7 11 1 4 11 14 15 14 12 12
32 34 25 22 25 23 18 15 13 14 13 12 13 12 14 16 11 7 9 11 12 11 9 9 7 8 11 11 8 7 12 22 16 9 4 9 5 10 14 11 13 10 10
27 28 27 23 19 16 14 15 15 14 14 12 12 12 11 11 9 9 8 11 12 12 10 8 7 8 9 7 8 11 13 18 11 8 10 6 2 8 9 9 8 7 9
33 29 27 22 20 22 15 12 11 10 10 7 5 6 10 10 4 8 6 10 13 15 16 13 11 8 7 7 6 6 9 13 2 5 7 2 3 3 5 8 8 7 7
34 31 31 26 24 23 17 17 13 6 7 6 8 3 6 5 8 2 3 9 17 17 16 17 19 13 6 6 6 5 2 4 1 0 11 10 5 1 3 6 7 7 7
34 32 33 27 25 21 23 13 12 19 16 12 13 13 6 7 7 7 6 8 18 18 15 14 17 25 23 18 10 17 16 5 6 14 14 15 9 4 2 5 7 9 9
35 31 30 28 25 24 18 18 18 9 6 11 10 9 15 11 10 5 10 4 13 13 18 14 15 19 20 18 24 25 23 18 16 9 25 19 24 16 13 14 10 7 16
34 33 29 27 27 26 26 19 16 17 12 13 10 12 12 15 14 10 20 16 16 16 15 24 19 21 17 23 20 22 24 30 16 19 13 21 29 29 24 24 22 14 17
33 34 31 31 30 28 25 21 16 16 10 11 13 11 11 15 16 23 20 23 22 24 22 25 25 24 25 24 24 31 32 35 32 27 27 18 25 30 28 28 27 26 21
34 35 33 30 31 29 25 23 18 16 11 14 9 13 13 10 12 16 19 18 22 20 22 24 32 26 20 18 25 22 17 25 23 34 35 32 46 43 33 28 31 28 24
31 34 32 28 33 29 24 21 20 17 15 19 3 5 7 7 2 6 13 16 18 16 12 13 14 20 17 18 19 17 17 28 22 25 27 27 28 27 41 38 37 36 37
34 33 32 31 32 31 28 23 25 18 18 11 9 5 5 2 2 5 5 10 12 15 13 17 13 20 15 14 13 14 13 19 18 18 25 26 26 36 27 46 38 42 44
36 34 34 30 28 27 26 27 16 20 17 14 15 10 13 7 4 12 6 7 7 5 8 11 10 3 10 8 9 14 13 12 16 17 19 22 21 30 25 35 44 33 50
37 38 38 36 33 28 26 18 17 16 19 19 18 23 12 8 8 14 13 5 6 11 11 9 8 9 10 9 9 16 20 12 10 13 12 11 17 14 19 33 26 34 43
44 41 40 40 37 36 27 25 23 20 21 22 18 18 16 14 8 6 16 11 9 12 14 9 8 4 5 4 12 17 13 11 15 14 8 12 12 13 12 13 15 21 21
46 47 45 44 42 39 30 32 26 23 28 29 27 19 17 12 12 13 10 9 10 11 7 5 3 9 10 6 15 10 13 12 18 13 12 6 13 16 7 11 17 17 17
50 49 48 48 48 43 42 32 32 21 22 23 26 23 20 11 17 8 10 8 8 1 9 8 6 7 11 11 10 13 13 17 17 18 11 13 9 12 14 6 7 10 12
51 51 51 51 52 46 46 39 34 28 22 17 18 18 20 21 15 10 10 7 4 2 15 11 8 10 12 14 12 15 13 14 16 16 21 15 10 9 6 13 9 9 9
51 49 50 52 54 52 49 48 43 35 25 22 20 18 16 14 19 16 12 8 9 10 8 7 13 14 10 13 11 10 12 13 13 13 17 16 17 11 3 8 17 10 6
Wind_Direction_500mb
130 128 125 123 129 130 130 128 128 126 127 129 134 137 139 137 139 136 140 146 144 137 138 128 117 113 96 90 88 96 116 113 113 106 102 98 97 94 97 96 85 107 102
128 122 123 126 138 133 135 131 128 129 127 127 136 136 138 140 139 136 146 150 143 132 144 135 123 112 111 97 90 108 115 118 105 111 106 103 101 101 112 115 133 104 107
135 131 125 132 135 130 143 142 140 135 128 133 135 141 151 157 152 141 145 147 140 128 134 144 127 105 128 114 111 104 102 119 124 105 106 121 102 97 109 122 127 98 111
148 133 138 143 141 133 131 142 148 142 141 141 141 145 151 151 148 146 152 149 139 120 103 130 133 108 117 124 126 107 110 107 115 106 156 103 120 100 99 106 107 100 108
135 142 153 147 148 141 140 145 145 143 144 143 134 134 138 143 143 146 150 155 130 98 102 112 117 117 116 129 131 129 108 103 94 65 51 147 162 115 86 113 105 108 113
142 149 147 145 148 148 147 146 150 150 144 139 138 142 144 141 143 143 140 138 115 117 113 110 115 122 121 127 128 133 118 102 92 102 198 241 169 101 106 118 133 123 133
143 154 157 151 153 148 151 150 152 150 148 129 134 137 141 139 141 140 134 132 130 129 128 123 116 126 131 129 128 132 129 125 110 107 70 105 106 117 132 127 127 132 133
147 141 158 155 154 151 158 156 151 145 137 135 129 128 128 132 129 136 149 151 147 142 132 130 122 128 136 131 129 133 107 134 113 144 90 87 177 145 129 127 124 129 132
151 153 151 157 162 155 160 160 148 148 153 146 135 142 139 132 117 135 145 151 154 145 141 135 132 147 150 132 111 113 93 118 101 161 80 200 51 111 107 116 124 128 134
158 158 160 168 169 155 161 166 162 158 159 164 154 151 147 139 72 57 171 159 153 151 140 147 145 155 156 137 107 105 86 99 114 106 111 274 261 125 120 120 122 133 146
159 166 170 170 172 174 174 201 173 165 131 133 141 138 120 161 8 253 148 208 172 171 160 175 169 161 132 90 57 71 117 113 179 82 249 286 99 112 138 142 148 139 152
176 176 178 176 174 173 177 220 179 201 178 129 217 182 143 191 170 74 298 289 203 184 176 189 208 204 165 214 259 29 251 75 88 228 240 263 242 92 195 209 171 177 177
180 184 177 179 173 175 185 189 213 204 173 209 200 188 186 213 192 205 242 359 182 185 199 204 222 220 231 234 237 227 331 191 240 257 230 254 240 260 247 211 239 222 209
185 188 179 183 186 184 195 187 203 216 186 204 214 194 226 198 202 222 219 160 181 213 210 205 221 243 249 259 247 243 247 268 218 243 269 271 270 253 260 259 245 249 236
188 191 192 193 197 196 198 205 202 199 194 196 216 245 231 229 210 221 206 177 192 198 200 214 215 230 235 237 264 269 250 234 240 247 277 273 278 265 254 253 255 257 246
191 195 199 201 203 196 202 198 197 203 199 207 227 240 250 245 245 222 222 195 205 205 211 217 225 246 241 257 243 260 268 250 238 223 225 249 267 263 251 246 245 245 245
195 193 197 198 203 194 200 204 204 210 212 232 201 251 287 293 271 233 213 205 207 215 223 234 241 246 258 259 248 235 257 260 263 251 261 251 245 259 253 250 247 248 246
192 188 196 192 192 197 200 204 212 218 218 227 204 237 311 20 130 207 197 205 216 231 245 253 245 243 240 255 267 260 250 252 246 265 270 262 261 267 241 235 245 247 252
192 191 195 190 189 195 201 211 208 223 222 218 207 214 205 144 141 88 162 199 218 231 223 243 228 250 256 259 259 259 265 262 257 254 266 261 257 266 243 238 250 240 244
192 193 195 194 198 198 204 218 218 225 216 208 213 214 242 208 157 151 177 192 156 223 219 228 232 209 289 294 294 262 260 266 286 283 266 280 253 248 244 260 253 252 237
192 194 196 193 195 197 205 210 203 198 202 203 213 223 221 198 194 170 172 233 166 218 210 228 221 236 236 192 279 267 246 244 284 245 257 279 292 286 245 253 255 254 255
194 195 196 195 198 198 200 203 209 192 204 199 198 212 197 178 185 131 178 201 211 220 230 225 240 274 301 285 298 304 282 236 220 240 231 288 296 270 289 287 294 274 230
194 195 197 196 199 198 195 211 189 194 199 208 191 188 176 178 179 181 221 233 234 224 239 241 265 268 278 300 268 303 318 1 335 222 283 260 247 278 259 285 314 303 299
198 199 199 198 197 202 191 202 194 197 198 206 202 205 210 221 219 210 236 228 241 251 237 272 299 292 302 293 307 256 287 290 303 305 276 252 263 278 219 283 40 305 272
199 202 203 202 201 200 205 196 203 194 196 202 203 213 220 217 203 221 225 239 225 73 274 247 280 276 290 286 298 298 296 286 275 276 289 293 279 317 245 275 272 316 309
197 198 200 202 203 199 207 196 201 205 199 190 190 197 203 204 219 212 215 218 232 240 255 257 280 301 270 260 271 306 301 298 284 291 285 285 276 278 340 270 249 259 308
Wind_Speed_850mb
36 30 36 35 36 38 39 40 40 38 38 36 34 34 32 30 28 28 26 23 15 13 17 17 11 10 9 11 13 14 17 21 19 23 28 29 28 29 29 31 29 17 23
32 30 33 35 29 32 38 40 40 37 35 32 28 28 28 29 26 22 21 19 18 15 15 10 9 7 6 13 15 23 26 22 19 21 22 23 25 25 24 28 26 16 20
23 30 32 31 29 33 37 38 34 30 28 26 25 23 23 23 21 19 19 19 13 10 8 8 7 7 9 15 21 20 19 25 20 21 23 23 14 21 20 21 15 15 18
29 25 27 31 31 34 35 34 30 27 23 20 19 20 19 20 20 17 17 16 11 8 6 7 9 9 12 15 22 21 25 23 20 19 9 30 17 18 19 18 17 18 17
29 25 27 30 29 29 28 27 25 22 18 16 17 19 20 21 20 17 16 11 7 8 8 11 12 13 15 17 20 18 18 18 24 11 10 9 23 15 16 16 18 18 23
33 25 30 30 30 28 26 23 20 18 15 15 15 16 17 16 14 12 10 8 8 9 9 13 13 15 16 15 16 13 14 21 17 11 13 13 10 11 11 17 17 13 15
33 27 31 32 29 24 23 21 17 17 14 15 15 15 14 12 11 11 11 9 9 9 10 11 10 13 14 15 13 12 11 17 17 8 12 29 21 8 13 15 14 13 13
39 25 26 30 27 24 18 16 15 15 15 13 15 13 14 13 11 10 10 11 9 8 7 8 10 10 12 13 10 9 8 13 4 7 11 1 4 11 14 15 14 12 12
32 34 25 22 25 23 18 15 13 14 13 12 13 12 14 16 11 7 9 11 12 11 9 9 7 8 11 11 8 7 12 22 16 9 4 9 5 10 14 11 13 10 10
27 28 27 23 19 16 14 15 15 14 14 12 12 12 11 11 9 9 8 11 12 12 10 8 7 8 9 7 8 11 13 18 11 8 10 6 2 8 9 9 8 7 9
33 29 27 22 20 22 15 12 11 10 10 7 5 6 10 10 4 8 6 10 13 15 16 13 11 8 7 7 6 6 9 13 2 5 7 2 3 3 5 8 8 7 7
34 31 31 26 24 23 17 17 13 6 7 6 8 3 6 5 8 2 3 9 17 17 16 17 19 13 6 6 6 5 2 4 1 0 11 10 5 1 3 6 7 7 7
34 32 33 27 25 21 23 13 12 19 16 12 13 13 6 7 7 7 6 8 18 18 15 14 17 25 23 18 10 17 16 5 6 14 14 15 9 4 2 5 7 9 9
35 31 30 28 25 24 18 18 18 9 6 11 10 9 15 11 10 5 10 4 13 13 18 14 15 19 20 18 24 25 23 18 16 9 25 19 24 16 13 14 10 7 16
34 33 29 27 27 26 26 19 16 17 12 13 10 12 12 15 14 10 20 16 16 16 15 24 19 21 17 23 20 22 24 30 16 19 13 21 29 29 24 24 22 14 17
33 34 31 31 30 28 25 21 16 16 10 11 13 11 11 15 16 23 20 23 22 24 22 25 25 24 25 24 24 31 32 35 32 27 27 18 25 30 28 28 27 26 21
34 35 33 30 31 29 25 23 18 16 11 14 9 13 13 10 12 16 19 18 22 20 22 24 32 26 20 18 25 22 17 25 23 34 35 32 46 43 33 28 31 28 24
31 34 32 28 33 29 24 21 20 17 15 19 3 5 7 7 2 6 13 16 18 16 12 13 14 20 17 18 19 17 17 28 22 25 27 27 28 27 41 38 37 36 37
34 33 32 31 32 31 28 23 25 18 18 11 9 5 5 2 2 5 5 10 12 15 13 17 13 20 15 14 13 14 13 19 18 18 25 26 26 36 27 46 38 42 44
36 34 34 30 28 27 26 27 16 20 17 14 15 10 13 7 4 12 6 7 7 5 8 11 10 3 10 8 9 14 13 12 16 17 19 22 21 30 25 35 44 33 50
37 38 38 36 33 28 26 18 17 16 19 19 18 23 12 8 8 14 13 5 6 11 11 9 8 9 10 9 9 16 20 12 10 13 12 11 17 14 19 33 26 34 43
44 41 40 40 37 36 27 25 23 20 21 22 18 18 16 14 8 6 16 11 9 12 14 9 8 4 5 4 12 17 13 11 15 14 8 12 12 13 12 13 15 21 21
46 47 45 44 42 39 30 32 26 23 28 29 27 19 17 12 12 13 10 9 10 11 7 5 3 9 10 6 15 10 13 12 18 13 12 6 13 16 7 11 17 17 17
50 49 48 48 48 43 42 32 32 21 22 23 26 23 20 11 17 8 10 8 8 1 9 8 6 7 11 11 10 13 13 17 17 18 11 13 9 12 14 6 7 10 12
51 51 51 51 52 46 46 39 34 28 22 17 18 18 20 21 15 10 10 7 4 2 15 11 8 10 12 14 12 15 13 14 16 16 21 15 10 9 6 13 9 9 9
51 49 50 52 54 52 49 48 43 35 25 22 20 18 16 14 19 16 12 8 9 10 8 7 13 14 10 13 11 10 12 13 13 13 17 16 17 11 3 8 17 10 6
Wind_Direction_850mb
130 128 125 123 129 130 130 128 128 126 127 129 134 137 139 137 139 136 140 146 144 137 138 128 117 113 96 90 88 96 116 113 113 106 102 98 97 94 97 96 85 107 102
128 122 123 126 138 133 135 131 128 129 127 127 136 136 138 140 139 136 146 150 143 132 144 135 123 112 111 97 90 108 115 118 105 111 106 103 101 101 112 115 133 104 107
135 131 125 132 135 130 143 142 140 135 128 133 135 141 151 157 152 141 145 147 140 128 134 144 127 105 128 114 111 104 102 119 124 105 106 121 102 97 109 122 127 98 111
148 133 138 143 141 133 131 142 148 142 141 141 141 145 151 151 148 146 152 149 139 120 103 130 133 108 117 124 126 107 110 107 115 106 156 103 120 100 99 106 107 100 108
135 142 153 147 148 141 140 145 145 143 144 143 134 134 138 143 143 146 150 155 130 98 102 112 117 117 116 129 131 129 108 103 94 65 51 147 162 115 86 113 105 108 113
142 149 147 145 148 148 147 146 150 150 144 139 138 142 144 141 143 143 140 138 115 117 113 110 115 122 121 127 128 133 118 102 92 102 198 241 169 101 106 118 133 123 133
143 154 157 151 153 148 151 150 152 150 148 129 134 137 141 139 141 140 134 132 130 129 128 123 116 126 131 129 128 132 129 125 110 107 70 105 106 117 132 127 127 132 133
147 141 158 155 154 151 158 156 151 145 137 135 129 128 128 132 129 136 149 151 147 142 132 130 122 128 136 131 129 133 107 134 113 144 90 87 177 145 129 127 124 129 132
151 153 151 157 162 155 160 160 148 148 153 146 135 142 139 132 117 135 145 151 154 145 141 135 132 147 150 132 111 113 93 118 101 161 80 200 51 111 107 116 124 128 134
158 158 160 168 169 155 161 166 162 158 159 164 154 151 147 139 72 57 171 159 153 151 140 147 145 155 156 137 107 105 86 99 114 106 111 274 261 125 120 120 122 133 146
159 166 170 170 172 174 174 201 173 165 131 133 141 138 120 161 8 253 148 208 172 171 160 175 169 161 132 90 57 71 117 113 179 82 249 286 99 112 138 142 148 139 152
176 176 178 176 174 173 177 220 179 201 178 129 217 182 143 191 170 74 298 289 203 184 176 189 208 204 165 214 259 29 251 75 88 228 240 263 242 92 195 209 171 177 177
180 184 177 179 173 175 185 189 213 204 173 209 200 188 186 213 192 205 242 359 182 185 199 204 222 220 231 234 237 227 331 191 240 257 230 254 240 260 247 211 239 222 209
185 188 179 183 186 184 195 187 203 216 186 204 214 194 226 198 202 222 219 160 181 213 210 205 221 243 249 259 247 243 247 268 218 243 269 271 270 253 260 259 245 249 236
188 191 192 193 197 196 198 205 202 199 194 196 216 245 231 229 210 221 206 177 192 198 200 214 215 230 235 237 264 269 250 234 240 247 277 273 278 265 254 253 255 257 246
191 195 199 201 203 196 202 198 197 203 199 207 227 240 250 245 245 222 222 195 205 205 211 217 225 246 241 257 243 260 268 250 238 223 225 249 267 263 251 246 245 245 245
195 193 197 198 203 194 200 204 204 210 212 232 201 251 287 293 271 233 213 205 207 215 223 234 241 246 258 259 248 235 257 260 263 251 261 251 245 259 253 250 247 248 246
192 188 196 192 192 197 200 204 212 218 218 227 204 237 311 20 130 207 197 205 216 231 245 253 245 243 240 255 267 260 250 252 246 265 270 262 261 267 241 235 245 247 252
192 191 195 190 189 195 201 211 208 223 222 218 207 214 205 144 141 88 162 199 218 231 223 243 228 250 256 259 259 259 265 262 257 254 266 261 257 266 243 238 250 240 244
192 193 195 194 198 198 204 218 218 225 216 208 213 214 242 208 157 151 177 192 156 223 219 228 232 209 289 294 294 262 260 266 286 283 266 280 253 248 244 260 253 252 237
192 194 196 193 195 197 205 210 203 198 202 203 213 223 221 198 194 170 172 233 166 218 210 228 221 236 236 192 279 267 246 244 284 245 257 279 292 286 245 253 255 254 255
194 195 196 195 198 198 200 203 209 192 204 199 198 212 197 178 185 131 178 201 211 220 230 225 240 274 301 285 298 304 282 236 220 240 231 288 296 270 289 287 294 274 230
194 195 197 196 199 198 195 211 189 194 199 208 191 188 176 178 179 181 221 233 234 224 239 241 265 268 278 300 268 303 318 1 335 222 283 260 247 278 259 285 314 303 299
198 199 199 198 197 202 191 202 194 197 198 206 202 205 210 221 219 210 236 228 241 251 237 272 299 292 302 293 307 256 287 290 303 305 276 252 263 278 219 283 40 305 272
199 202 203 202 201 200 205 196 203 194 196 202 203 213 220 217 203 221 225 239 225 73 274 247 280 276 290 286 298 298 296 286 275 276 289 293 279 317 245 275 272 316 309
197 198 200 202 203 199 207 196 201 205 199 190 190 197 203 204 219 212 215 218 232 240 255 257 280 301 270 260 271 306 301 298 284 291 285 285 276 278 340 270 249 259 308